Hurricane Symbol View the latest observations near Atlantic Tropical Storm Alberto.

Station RDYD1 - 8551910 - Reedy Point, DE Image indicating link to RSS feed of recent meteorological observations for station RDYD1


Conditions at RDYD1 as of
(4:30 am EDT)
0830 GMT on 06/20/2024:
     

Click on the graph icon in the table below to see a time series plot of the last five days of that observation.

5-day plot - Atmospheric Pressure Atmospheric Pressure (PRES):30.31 in
5-day plot - Air Temperature Air Temperature (ATMP): 67.5 °F
5-day plot - Water Temperature Water Temperature (WTMP): 79.2 °F
NOS Water Level Observation Network Water Level
Previous observations
TIME
(EDT)
5-day plot - Wind Direction
WDIR
 
5-day plot - Wind Speed
WSPD
kts
5-day plot - Wind Gust
GST
kts
5-day plot - Wave Height
WVHT
ft
5-day plot - Dominant Wave Period
DPD
sec
5-day plot - Average Wave Period
APD
sec
5-day plot - Mean Wave Direction
MWD
 
5-day plot - Atmospheric Pressure
PRES
in
5-day plot - Pressure Tendency
PTDY
in
5-day plot - Air Temperature
ATMP
°F
5-day plot - Water Temperature
WTMP
°F
5-day plot - Dew Point
DEWP
°F
5-day plot - Salinity
SAL
psu
5-day plot - Visibility
VIS
nmi
5-day plot - Tide (above MLLW)
TIDE
ft
2024-06-20 04:24 am-------30.31- 67.5 79.2----
2024-06-20 04:18 am-------30.31- 67.5 79.2----
2024-06-20 04:12 am-------30.31- 67.6 79.0----
2024-06-20 04:06 am-------30.31- 67.6 79.0----
2024-06-20 04:00 am-------30.31+0.00 67.3 79.0----
2024-06-20 03:54 am-------30.31- 67.3 79.0----
2024-06-20 03:48 am-------30.31- 67.5 79.0----
2024-06-20 03:42 am-------30.31- 67.5 79.0----
2024-06-20 03:36 am-------30.31- 67.6 79.0----
2024-06-20 03:30 am-------30.30- 67.6 79.2----
2024-06-20 03:24 am-------30.30- 67.6 79.3----
2024-06-20 03:18 am-------30.30- 67.5 79.3----
2024-06-20 03:12 am-------30.30- 67.5 79.3----
2024-06-20 03:06 am-------30.31- 67.6 79.3----
2024-06-20 03:00 am-------30.30-0.02 67.8 79.3----
2024-06-20 02:54 am-------30.31- 67.8 79.3----
2024-06-20 02:48 am-------30.31- 68.0 79.3----
2024-06-20 02:42 am-------30.31- 68.2 79.3----
2024-06-20 02:36 am-------30.31- 68.2 79.3----
2024-06-20 02:30 am-------30.31- 68.4 79.3----
2024-06-20 02:24 am-------30.30- 68.5 79.3----
2024-06-20 02:18 am-------30.30- 68.7 79.3----
2024-06-20 02:12 am-------30.30- 68.7 79.3----
2024-06-20 02:06 am-------30.31- 68.9 79.3----
2024-06-20 02:00 am-------30.31-0.02 68.9 79.3----
2024-06-20 01:54 am-------30.31- 69.1 79.5----
2024-06-20 01:48 am-------30.31- 69.1 79.5----
2024-06-20 01:42 am-------30.31- 69.3 79.5----
2024-06-20 01:36 am-------30.31- 69.3 79.5----
2024-06-20 01:30 am-------30.31- 69.4 79.5----
2024-06-20 01:24 am-------30.31- 69.6 79.5----
2024-06-20 01:18 am-------30.31- 69.8 79.5----
2024-06-20 01:12 am-------30.31- 70.0 79.5----
2024-06-20 01:06 am-------30.31- 70.2 79.5----
2024-06-20 01:00 am-------30.31-0.01 70.2 79.7----
2024-06-20 12:54 am-------30.31- 70.2 79.7----
2024-06-20 12:48 am-------30.31- 70.5 79.7----
2024-06-20 12:42 am-------30.31- 70.7 79.7----
2024-06-20 12:36 am-------30.31- 70.9 79.7----
2024-06-20 12:30 am-------30.31- 71.1 79.7----
2024-06-20 12:24 am-------30.31- 71.4 79.7----
2024-06-20 12:18 am-------30.32- 71.6 79.9----
2024-06-20 12:12 am-------30.32- 71.8 79.9----
2024-06-20 12:06 am-------30.32- 72.1 79.9----
2024-06-20 12:00 am-------30.32+0.01 72.3 79.9----
2024-06-19 11:54 pm-------30.32- 72.5 79.9----
2024-06-19 11:48 pm-------30.32- 72.9 79.9----
2024-06-19 11:42 pm-------30.33- 73.2 79.9----
2024-06-19 11:36 pm-------30.33- 73.4 79.9----
2024-06-19 11:30 pm-------30.33- 73.6 79.9----
2024-06-19 11:24 pm-------30.32- 73.9 79.9----
2024-06-19 11:18 pm-------30.33- 74.1 79.9----
2024-06-19 11:12 pm-------30.32- 74.3 79.9----
2024-06-19 11:06 pm-------30.33- 74.7 79.9----
2024-06-19 11:00 pm-------30.33+0.01 74.8 79.9----
2024-06-19 10:54 pm-------30.33- 75.0 79.9----
2024-06-19 10:48 pm-------30.33- 75.0 79.9----
2024-06-19 10:42 pm-------30.33- 74.8 79.9----
2024-06-19 10:36 pm-------30.33- 74.8 79.9----
2024-06-19 10:30 pm-------30.33- 74.7 79.9----
2024-06-19 10:24 pm-------30.33- 74.3 79.9----
2024-06-19 10:18 pm-------30.33- 74.3 80.1----
2024-06-19 10:12 pm-------30.33- 74.3 80.1----
2024-06-19 10:06 pm-------30.33- 74.3 80.1----
2024-06-19 10:00 pm-------30.32+0.02 74.1 80.1----
2024-06-19 09:54 pm-------30.32- 74.1 80.1----
2024-06-19 09:48 pm-------30.32- 73.9 80.1----
2024-06-19 09:42 pm-------30.32- 73.9 80.1----
2024-06-19 09:36 pm-------30.32- 73.9 80.1----
2024-06-19 09:30 pm-------30.31- 73.9 80.1----
2024-06-19 09:24 pm-------30.32- 74.1 80.1----
2024-06-19 09:18 pm-------30.32- 74.1 80.1----
2024-06-19 09:12 pm-------30.32- 74.3 80.1----
2024-06-19 09:06 pm-------30.32- 74.3 80.1----
2024-06-19 09:00 pm-------30.32+0.01 74.5 80.1----
2024-06-19 08:54 pm-------30.32- 74.7 80.1----
2024-06-19 08:48 pm-------30.32- 74.8 80.1----
2024-06-19 08:42 pm-------30.31- 75.0 80.1----
2024-06-19 08:36 pm-------30.31- 75.2 80.1----
2024-06-19 08:30 pm-------30.31- 75.6 80.2----
2024-06-19 08:24 pm-------30.31- 75.6 80.2----
2024-06-19 08:18 pm-------30.31- 75.9 80.2----
2024-06-19 08:12 pm-------30.32- 76.3 80.2----
2024-06-19 08:06 pm-------30.31- 76.5 80.2----
2024-06-19 08:00 pm-------30.31+0.00 77.0 80.2----
2024-06-19 07:54 pm-------30.31- 77.5 80.2----
2024-06-19 07:48 pm-------30.31- 78.4 80.2----
2024-06-19 07:42 pm-------30.31- 79.2 80.2----
2024-06-19 07:36 pm-------30.31- 79.9 80.2----
2024-06-19 07:30 pm-------30.30- 80.1 80.2----
2024-06-19 07:24 pm-------30.30- 80.2 80.2----
2024-06-19 07:00 pm-------30.30-0.01 81.1 80.2----
2024-06-19 06:54 pm-------30.30- 81.0 80.2----
2024-06-19 06:48 pm-------30.30-- 80.2----
2024-06-19 06:42 pm-------30.30-- 80.2----
2024-06-19 06:36 pm-------30.30-- 80.2----
2024-06-19 06:30 pm-------30.30- 81.0 80.2----
2024-06-19 06:24 pm-------30.30- 81.1 80.2----
2024-06-19 06:18 pm-------30.30- 81.1-----
2024-06-19 06:12 pm-------30.30- 81.0-----
2024-06-19 06:06 pm-------30.30- 80.8-----
2024-06-19 06:00 pm-------30.30-0.01 80.4 80.2----
2024-06-19 05:54 pm-------30.30- 80.6 80.2----
2024-06-19 05:48 pm-------30.30- 81.0 80.2----
2024-06-19 05:42 pm-------30.30- 81.3 80.2----
2024-06-19 05:36 pm-------30.30- 81.5 80.2----
2024-06-19 05:30 pm-------30.30- 82.2 80.2----
2024-06-19 05:24 pm-------30.30- 82.0 80.2----
2024-06-19 05:18 pm-------30.30- 82.0 80.2----
2024-06-19 05:12 pm-------30.30- 82.0 80.2----
2024-06-19 05:06 pm-------30.31- 81.9 80.2----
2024-06-19 05:00 pm-------30.31-0.01 81.7 80.2----
2024-06-19 04:54 pm-------30.31- 82.0 80.2----
2024-06-19 04:48 pm-------30.31- 83.1 80.2----
2024-06-19 04:42 pm-------30.31- 84.0 80.2----
2024-06-19 04:36 pm-------30.31- 84.2 80.2----
2024-06-19 04:30 pm-------30.31- 84.7 80.4----
2024-06-19 04:24 pm-------30.31- 84.7 80.4----
2024-06-19 04:18 pm-------30.31- 84.4 80.4----
2024-06-19 04:12 pm-------30.32- 84.4 80.4----
2024-06-19 04:06 pm-------30.32- 84.4 80.4----
2024-06-19 04:00 pm-------30.32-0.02 84.2 80.4----
2024-06-19 03:54 pm-------30.32- 84.4 80.4----
2024-06-19 03:48 pm-------30.32- 84.4 80.4----
2024-06-19 03:42 pm-------30.32- 84.9 80.4----
2024-06-19 03:36 pm-------30.32- 85.3 80.4----
2024-06-19 03:30 pm-------30.32- 84.9 80.4----
2024-06-19 03:24 pm-------30.32- 84.9 80.6----
2024-06-19 03:18 pm-------30.32- 85.3 80.6----
2024-06-19 03:12 pm-------30.32- 84.9 80.6----
2024-06-19 03:06 pm-------30.32- 85.5 80.6----
2024-06-19 03:00 pm-------30.32-0.03 86.2 80.6----
2024-06-19 02:54 pm-------30.32- 86.4 80.6----
2024-06-19 02:48 pm-------30.32- 86.4 80.6----
2024-06-19 02:42 pm-------30.32- 86.7 80.6----
2024-06-19 02:36 pm-------30.32- 87.1 80.6----
2024-06-19 02:30 pm-------30.32- 87.4 80.6----
2024-06-19 02:24 pm-------30.32- 87.8 80.6----
2024-06-19 02:18 pm-------30.32- 88.5 80.6----
2024-06-19 02:12 pm-------30.32- 88.3 80.6----
2024-06-19 02:06 pm-------30.32- 88.5 80.6----
2024-06-19 02:00 pm-------30.32-0.03 88.9 80.4----
2024-06-19 01:54 pm-------30.32- 88.7 80.4----
2024-06-19 01:48 pm-------30.32- 88.7 80.4----
2024-06-19 01:42 pm-------30.33- 89.1 80.2----
2024-06-19 01:36 pm-------30.33- 89.2 80.1----
2024-06-19 01:30 pm-------30.33- 89.4 80.1----
2024-06-19 01:24 pm-------30.33- 88.9 80.1----
2024-06-19 01:18 pm-------30.33- 88.9 80.1----
2024-06-19 01:12 pm-------30.34- 89.1 79.9----
2024-06-19 01:06 pm-------30.34- 89.2 79.9----
2024-06-19 01:00 pm-------30.34-0.02 88.9 79.9----
2024-06-19 12:54 pm-------30.34- 88.7 79.9----
2024-06-19 12:48 pm-------30.34- 88.9 79.9----
2024-06-19 12:42 pm-------30.34- 88.9 79.9----
2024-06-19 12:36 pm-------30.34- 88.5 79.9----
2024-06-19 12:30 pm-------30.34- 88.2 79.7----
2024-06-19 12:24 pm-------30.35- 88.0 79.7----
2024-06-19 12:18 pm-------30.35- 87.8 79.7----
2024-06-19 12:12 pm-------30.35- 87.3 79.7----
2024-06-19 12:06 pm-------30.35- 87.4 79.7----
2024-06-19 12:00 pm-------30.35-0.01 87.4 79.7----
2024-06-19 11:54 am-------30.35- 87.6 79.7----
2024-06-19 11:48 am-------30.35- 87.4 79.9----
2024-06-19 11:42 am-------30.35- 87.4 79.9----
2024-06-19 11:36 am-------30.35- 87.4 79.9----
2024-06-19 11:30 am-------30.35- 87.3 79.9----
2024-06-19 11:24 am-------30.35- 87.1 79.7----
2024-06-19 11:18 am-------30.35- 86.9 79.9----
2024-06-19 11:12 am-------30.35- 86.9 79.9----
2024-06-19 11:06 am-------30.35- 86.5 79.9----
2024-06-19 11:00 am-------30.35+0.00 86.0 79.7----
2024-06-19 10:54 am-------30.35- 85.8 79.5----
2024-06-19 10:48 am-------30.35- 85.8 79.5----
2024-06-19 10:42 am-------30.35- 85.6 79.5----
2024-06-19 10:36 am-------30.35- 85.3 79.5----
2024-06-19 10:30 am-------30.35- 84.6 79.3----
2024-06-19 10:24 am-------30.35- 84.0 79.3----
2024-06-19 10:18 am-------30.35- 84.6 79.3----
2024-06-19 10:12 am-------30.35- 84.2 79.3----
2024-06-19 10:06 am-------30.35- 84.0 79.3----
2024-06-19 10:00 am-------30.35+0.02 83.1 79.3----
2024-06-19 09:54 am-------30.35- 83.1 79.3----
2024-06-19 09:48 am-------30.35- 82.4 79.3----
2024-06-19 09:42 am-------30.35- 82.4 79.3----
2024-06-19 09:36 am-------30.36- 82.8 79.2----
2024-06-19 09:30 am-------30.35- 82.2 79.2----
2024-06-19 09:24 am-------30.35- 81.9 79.2----
2024-06-19 09:18 am-------30.36- 81.5 79.2----
2024-06-19 09:12 am-------30.36- 81.3 79.2----
2024-06-19 09:06 am-------30.36- 81.3 79.2----
2024-06-19 09:00 am-------30.36+0.04 81.0 79.2----
2024-06-19 08:54 am-------30.36- 80.6 79.2----
2024-06-19 08:48 am-------30.36- 80.2 79.0----
2024-06-19 08:42 am-------30.36- 79.7 79.0----
2024-06-19 08:36 am-------30.36- 79.0 79.0----
2024-06-19 08:30 am-------30.36- 78.8 79.0----
2024-06-19 08:24 am-------30.35- 78.3 79.0----
2024-06-19 08:18 am-------30.35- 77.7 78.8----
2024-06-19 08:12 am-------30.35- 77.0 78.8----
2024-06-19 08:06 am-------30.35- 76.5 78.8----
2024-06-19 08:00 am-------30.35+0.04 76.1 78.6----
2024-06-19 07:54 am-------30.35- 75.6 78.6----
2024-06-19 07:48 am-------30.35-- 78.6----
2024-06-19 07:42 am-------30.35-- 78.6----
2024-06-19 07:36 am-------30.35-- 78.6----
2024-06-19 07:30 am-------30.35- 73.6 78.6----
2024-06-19 07:24 am-------30.34- 72.7 78.4----
2024-06-19 07:18 am-------30.34- 72.3 78.4----
2024-06-19 07:12 am-------30.34- 72.5 78.4----
2024-06-19 07:06 am-------30.33- 72.7 78.4----
2024-06-19 07:00 am-------30.33+0.04 72.7 78.4----
2024-06-19 06:54 am-------30.33- 72.7 78.4----
2024-06-19 06:48 am-------30.32- 72.1 78.3----
2024-06-19 06:42 am-------30.32- 71.8 78.3----
2024-06-19 06:36 am-------30.32- 71.2 78.3----
2024-06-19 06:30 am-------30.32- 70.7 78.3----
2024-06-19 06:24 am-------30.32- 70.2 78.3----
2024-06-19 06:18 am-------30.32- 69.8 78.3----
2024-06-19 06:12 am-------30.32- 69.3 78.1----
2024-06-19 06:06 am-------30.32- 68.4 78.1----
2024-06-19 06:00 am-------30.32+0.03 67.6 78.1----
2024-06-19 05:54 am-------30.32- 67.3 78.1----
2024-06-19 05:48 am-------30.32- 67.1 78.1----
2024-06-19 05:42 am-------30.31- 66.9 78.3----
2024-06-19 05:36 am-------30.32- 66.9 78.3----
2024-06-19 05:30 am-------30.32- 66.7 78.3----
2024-06-19 05:24 am-------30.32- 66.7 78.4----
2024-06-19 05:18 am-------30.32- 66.9 78.4----
2024-06-19 05:12 am-------30.31- 66.9 78.4----
2024-06-19 05:06 am-------30.31- 67.1 78.4----
2024-06-19 05:00 am-------30.31+0.03 67.1 78.4----
2024-06-19 04:54 am-------30.30- 67.3 78.4----